INTELSAT 901 (IS-901) (26824 NORAD) Tracking and Keplerian Element Data

This shows tracking and keplerian element data for the satellite.

Feedback or suggestion? Click here.




ElementValue
Catalog26824
NameINTELSAT 901 (IS-901)
Epoch Orbit1798
Epoch Day34.74960303
Epoch Year2025
RAAN119.2405
Inclination0.0215
Eccentricity0.0002602
Argument of Perigee229.4046
Mean Anonmoly27.8726
Mean Motion1.00270291
Decay Rate-1.98E-06
L11 26824U 01024A 25034.74960303 -.00000198 00000+0 00000+0 0 9992
L22 26824 0.0215 119.2405 0002602 229.4046 27.8726 1.00270291 17980



Live tracking and technical data element details for INTELSAT 901 (IS-901) (NORAD 26824). INTELSAT 901 (IS-901) can be tracked NOW for your location showing map with azimuth and elevation plus other details from your city location.







IsCatalogInMostPopularTable: catalog: 26824, numindb: 922
Update: records affected: 1



GetName: 26824 INTELSAT 901 (IS-901)

Hit Count: updated at: Mon, 17 Nov 2025 05:45:19 GMT